Regional Weather Roundup
Issued by NWS

Home | Current Version | Previous Version | Text Only | Print | Product List | Glossary On
Versions: 1 2 3 4 5 6 7 8 9 10 11 12 13 14 15 16 17 18 19 20 21 22 23 24 25 26 27 28 29 30 31 32 33 34 35 36 37 38 39 40 41 42 43 44 45 46 47 48 49 50
000
ASUS43 KMKX 251500
RWRWI

WISCONSIN REGIONAL WEATHER ROUNDUP
NATIONAL WEATHER SERVICE MILWAUKEE/SULLIVAN WI
900 AM CST THU DEC 25 2014

NOTE: "FAIR" INDICATES FEW OR NO CLOUDS BELOW 12,000 FEET WITH NO
SIGNIFICANT WEATHER AND/OR OBSTRUCTIONS TO VISIBILITY.

WIZ001-002-006>008-014>016-023>028-251600-
NORTHWEST WISCONSIN

CITY           SKY/WX    TMP DP  RH WIND       PRES   REMARKS
SUPERIOR ARPT  CLOUDY    32  29  88 SW9       29.64R WCI  24
ASHLAND        CLOUDY    33  28  81 SW10      29.64R WCI  25
HAYWARD        CLOUDY    31  26  82 SW10      29.66R WCI  22
SIREN          CLOUDY    31  28  87 SW12      29.67R WCI  22
CUMBERLAND     CLOUDY    30  28  93 SW10G16   29.66R WCI  21
RICE LAKE      CLOUDY    31  28  87 S5        29.69R WCI  26
CHETEK         CLOUDY    30  27  89 S7        29.69R WCI  23
LADYSMITH      CLOUDY    31  28  89 S13       29.69R WCI  22
EAU CLAIRE     NOT AVBL
MENOMONIE      CLOUDY    31  28  88 S9        29.71R WCI  23
NEW RICHMOND   CLOUDY    30  28  94 SW9       29.69R WCI  22
OSCEOLA        CLOUDY    31  30  96 SW8       29.72R WCI  24
$$

WIZ003>005-009-010-017-018-251600-
NORTH CENTRAL WISCONSIN

CITY           SKY/WX    TMP DP  RH WIND       PRES   REMARKS
MANITOWISH WTR CLOUDY    29  28  96 SW8       29.61S WCI  21
ARBOR VITAE    CLOUDY    32  29  90 SW6       29.63S WCI  26
WOODRUFF       CLOUDY    32  29  90 SW6       29.63S WCI  26
RHINELANDER    CLOUDY    29  27  92 SW8       29.67R WCI  21
EAGLE RIVER    CLOUDY    29  28  95 SW9       29.63R WCI  21
LAND O LAKES   CLOUDY    31  28  90 SW7       29.63R WCI  24
PHILLIPS       CLOUDY    29  27  92 SW7       29.64R WCI  22
TOMAHAWK       CLOUDY    29  27  92 CALM      29.67R
MEDFORD        CLOUDY    29  27  90 S12       29.68R WCI  20
MERRILL        CLOUDY    31  28  88 SW7       29.69R WCI  24
$$

WIZ029-030-035-036-043>047-251600-
CENTRAL WISCONSIN

CITY           SKY/WX    TMP DP  RH WIND       PRES   REMARKS
WAUSAU         CLOUDY    31  27  85 SW8       29.71R WCI  23
MOSINEE        CLOUDY    30  28  93 SW10G17   29.73R WCI  21
MARSHFIELD     CLOUDY    30  26  85 SW10      29.72R WCI  21
STEVENS POINT  CLOUDY    30  26  84 SW10      29.74R WCI  21
WAUPACA        CLOUDY    35  28  78 SW13G21   29.76R WCI  26
WAUTOMA        NOT AVBL
WISC RAPIDS    CLOUDY    31  26  82 SW9       29.77R WCI  23
CAMP DOUGLAS   NOT AVBL
$$

WIZ011>013-019>022-031-037>040-048>050-251600-
NORTHEAST WISCONSIN

CITY           SKY/WX    TMP DP  RH WIND       PRES   REMARKS
ANTIGO         CLOUDY    29  27  92 SW12      29.69R WCI  20
SHAWANO        CLOUDY    35  29  80 W10       29.74R WCI  27
OCONTO         CLOUDY    33  30  89 SW7       29.74R WCI  27
STURGEON BAY   CLOUDY    34  27  75 SW12G20   29.76R WCI  25
GREEN BAY      CLOUDY    34  30  85 SW12      29.77R WCI  25
MANITOWOC      NOT AVBL
APPLETON       CLOUDY    34  30  86 SW18      29.76R WCI  23
CLINTONVILLE   CLOUDY    32  30  93 SW10      29.74R WCI  24
OSHKOSH        CLOUDY    34  28  79 SW12      29.79R WCI  25
$$

WIZ032>034-041-042-053>061-251600-
SOUTHWEST WISCONSIN

CITY           SKY/WX    TMP DP  RH WIND       PRES   REMARKS
LA CROSSE      CLOUDY    33  27  78 S7        29.78R WCI  27
SPARTA         CLOUDY    32  27  83 S3        29.78R
VIROQUA        CLOUDY    30  30 100 S12G17    29.77R WCI  20
BOSCOBEL       CLOUDY    33  27  78 SW13      29.83R WCI  24
PRAIRIE DU CHI CLOUDY    32  27  80 S12       29.81S WCI  23
PLATTEVILLE    CLOUDY    32  29  89 S15       29.85R WCI  22
$$

WIZ056-057-062-063-064-067-068-251600-
SOUTH CENTRAL WISCONSIN

CITY           SKY/WX    TMP DP  RH WIND       PRES   REMARKS
REEDSBURG      CLOUDY    31  28  86 SW10      29.79R WCI  22
BARABOO/DELLS  CLOUDY    31  27  83 SW9       29.79R WCI  23
LONE ROCK      CLOUDY    36  27  69 SW8       29.83R WCI  30
MINERAL POINT  CLOUDY    32  30  93 SW10      29.82R WCI  24
MADISON        CLOUDY    32  26  78 SW10G18   29.83R WCI  24
MIDDLETON      CLOUDY    33  28  81 SW9G21    29.82R WCI  25
WATERTOWN      CLOUDY    32  28  83 SW12      29.83R WCI  23
MONROE         CLOUDY    32  30  93 SW14G22   29.84R WCI  22
JANESVILLE     CLOUDY    34  28  80 MISG      29.87R
$$

WIZ051-052-058>065-066-070>072-251600-
SOUTHEAST WISCONSIN

CITY           SKY/WX    TMP DP  RH WIND       PRES   REMARKS
MILWAUKEE      CLOUDY    35  26  69 SW18      29.86R WCI  24
WAUKESHA       CLOUDY    30  27  86 SW9       29.84R WCI  22
MILWAUKEE/TIMM NOT AVBL
RACINE         CLOUDY    34  27  75 SW14G24   29.88R WCI  25
BURLINGTON     CLOUDY    31  27  83 SW14      29.86R WCI  21
KENOSHA        CLOUDY    34  28  79 SW20G28   29.87R WCI  23
FOND DU LAC    CLOUDY    33  27  78 SW17G24   29.80R WCI  22
SHEBOYGAN      CLOUDY    34  28  79 W15       29.80R WCI  24
WEST BEND      CLOUDY    32  28  86 SW9       29.80R WCI  24
JUNEAU         CLOUDY    31  27  83 SW18G25   29.83R WCI  19
$$

LSZ147-162-251600-
LAKE SUPERIOR

STATION/POSITION TIME  TEMP    WIND        PRES    WAVE
                       AIR SEA DIR/SP/G            HT/PER
                 (UTC) (F)     (DEG/KT/KT) (MB)    (FT/S)
DEVILS ISLAND    1400   34     230/ 18/ 22 1002.9R
PORT WING        1440   33     200/  8/ 11 1004.1R
SAXON HARBOR     1400   34     200/ 10/ 16 1002.7R
$$

LMZ867-665-643>646-251600-
LAKE MICHIGAN

STATION/POSITION TIME  TEMP    WIND        PRES    WAVE
                       AIR SEA DIR/SP/G            HT/PER
                 (UTC) (F)     (DEG/KT/KT) (MB)    (FT/S)
CHAMBERS ISLAND  1400   33     210/  7/ 12 1006.1R
NORTHPORT PIER   1400   33     230/  6/ 11 1005.8R
SISTER BAY       1413          240/ 12/ 15   N/A
ALGOMA LAKESHORE 1415          260/ 10/ 13   N/A
KEWAUNEE LAKESHO 1400   35     250/  5/ 11 1006.3R
SHEBOYGAN LAKESH 1400   35 37  240/ 16/ 19 1009.1R
PORT WASHINGTON  1400   35     250/  9/ 15 1009.8R
MILWAUKEE LAKESH 1400   35     250/ 11/ 14   N/A
KENOSHA   LAKESH 1400   34     250/ 16/ 22 1011.2R
$$

TC  - TEMPERATURE IN CELSIUS
VSB - VISIBILITY IN STATUTE MILES
WCI - WIND CHILL INDEX
HX  - HEAT INDEX



USA.gov is the U.S. government's official web portal to all federal, state and local government web resources and services.